Location: Poughquag
(41.6090°N, 73.6820°W)
Time: 12:29:32
(UTC-04:00)

Tiros 1 despin weight - Pass Details

Date: 31 May 2020
Orbit: 593 x 642 km, 48.2° (Epoch: 07 July)

Event Time Altitude Azimuth Distance (km) Brightness Sun altitude
Rises 12:44:51 0° 268° (W) 2,913 ? 70.4°
Reaches altitude 10° 12:47:17 10° 276° (W) 1,998 ? 70.4°
Maximum altitude 12:51:39 42° 347° (NNW) 892 ? 70.4°
Drops below altitude 10° 12:55:58 10° 59° (ENE) 1,971 ? 70.4°
Sets 12:58:21 0° 66° (ENE) 2,868 ? 70.4°
